Location: Round Knob
(37.2473°N, 88.7376°W)
Time: 22:17:56
(UTC+00:00)

N. Korean satellite - Pass Details

Date: 05 October 2021
Orbit: 450 x 495 km, 97.3° (Epoch: 21 October)

Event Time Altitude Azimuth Distance (km) Brightness Sun altitude
Rises 11:23:57 0° 6° (N) 2,564 10.3 -6.8°
Reaches altitude 10° 11:26:02 10° 2° (N) 1,684 9.3 -6.4°
Maximum altitude 11:29:35 54° 284° (WNW) 603 6.7 -5.7°
Drops below altitude 10° 11:33:08 10° 207° (SSW) 1,685 9.1 -5.0°
Sets 11:35:14 0° 202° (SSW) 2,565 10.0 -4.6°
